Time,TemperatureF,DewpointF,PressureIn,WindDirection,WindDirectionDegrees,WindSpeedMPH,WindSpeedGustMPH,Humidity,HourlyPrecipIn,Conditions,Clouds,dailyrainin,SoftwareType,DateUTC
2013-06-19 00:01:00,61.0,60.2,29.96,SE,143,0.0,0.0,97,0.00,,---,0.00,VWS V14.01,2013-06-19 04:01:00,
2013-06-19 00:02:00,61.0,60.2,29.96,SE,143,0.0,0.0,97,0.00,,---,0.00,VWS V14.01,2013-06-19 04:02:00,
2013-06-19 00:03:00,61.0,60.2,29.96,SE,143,0.0,0.0,97,0.00,,---,0.00,VWS V14.01,2013-06-19 04:03:00,
2013-06-19 00:08:00,60.8,60.0,29.96,SE,143,0.0,0.0,97,0.00,,---,0.00,VWS V14.01,2013-06-19 04:08:00,
2013-06-19 00:13:00,60.8,60.0,29.96,SE,143,3.2,3.9,97,0.00,,---,0.00,VWS V14.01,2013-06-19 04:13:00,
2013-06-19 00:18:00,60.6,60.2,29.96,SE,143,0.0,0.0,99,0.00,,---,0.00,VWS V14.01,2013-06-19 04:18:00,
2013-06-19 00:23:00,60.4,60.1,29.96,SE,143,0.0,0.0,99,0.00,,---,0.00,VWS V14.01,2013-06-19 04:23:00,
2013-06-19 00:28:00,60.4,60.1,29.96,SE,143,0.0,0.0,99,0.00,,---,0.00,VWS V14.01,2013-06-19 04:28:00,
2013-06-19 00:34:00,60.3,59.9,29.96,SE,143,0.0,0.0,99,0.00,,---,0.00,VWS V14.01,2013-06-19 04:34:00,
2013-06-19 00:39:00,60.3,59.9,29.96,SE,143,0.0,0.0,99,0.00,,---,0.00,VWS V14.01,2013-06-19 04:39:00,
2013-06-19 00:44:00,60.1,59.7,29.96,SE,143,0.0,0.0,99,0.00,,---,0.00,VWS V14.01,2013-06-19 04:44:00,
2013-06-19 00:49:00,60.1,59.7,29.96,SE,143,0.0,0.0,99,0.00,,---,0.00,VWS V14.01,2013-06-19 04:49:00,
2013-06-19 00:54:00,59.9,59.5,29.96,SE,143,0.0,3.2,99,0.00,,---,0.00,VWS V14.01,2013-06-19 04:54:00,
2013-06-19 00:59:00,59.7,59.3,29.96,SE,143,0.0,0.0,99,0.00,,---,0.00,VWS V14.01,2013-06-19 04:59:00,
2013-06-19 01:04:00,59.5,59.2,29.96,SE,143,0.0,0.0,99,0.00,,---,0.00,VWS V14.01,2013-06-19 05:04:00,
2013-06-19 01:10:00,59.4,59.0,29.96,SE,143,0.0,0.0,99,0.00,,---,0.00,VWS V14.01,2013-06-19 05:10:00,
2013-06-19 01:15:00,59.2,58.8,29.96,SE,143,0.0,0.0,99,0.00,,---,0.00,VWS V14.01,2013-06-19 05:15:00,
2013-06-19 01:20:00,59.2,58.8,29.96,SE,143,0.0,0.0,99,0.00,,---,0.00,VWS V14.01,2013-06-19 05:20:00,
2013-06-19 01:25:00,59.4,59.4,29.96,SE,143,0.0,0.0,100,0.00,,---,0.00,VWS V14.01,2013-06-19 05:25:00,
2013-06-19 01:30:00,59.4,59.4,29.96,SE,143,0.0,0.0,100,0.00,,---,0.00,VWS V14.01,2013-06-19 05:30:00,
2013-06-19 01:35:00,59.4,59.0,29.96,SE,145,4.5,4.5,99,0.00,,---,0.00,VWS V14.01,2013-06-19 05:35:00,
2013-06-19 01:41:00,59.2,58.8,29.96,SE,145,0.0,3.9,99,0.00,,---,0.00,VWS V14.01,2013-06-19 05:41:00,
2013-06-19 01:46:00,59.2,59.2,29.96,SE,145,0.0,0.0,100,0.00,,---,0.00,VWS V14.01,2013-06-19 05:46:00,
2013-06-19 01:51:00,59.2,59.2,29.96,SE,145,0.0,0.0,100,0.00,,---,0.00,VWS V14.01,2013-06-19 05:51:00,
2013-06-19 01:56:00,59.2,59.2,29.96,SE,145,0.0,0.0,100,0.00,,---,0.00,VWS V14.01,2013-06-19 05:56:00,
2013-06-19 02:01:00,59.2,59.2,29.93,SE,145,0.0,0.0,100,0.00,,---,0.00,VWS V14.01,2013-06-19 06:01:00,
2013-06-19 02:06:00,59.4,59.4,29.93,SE,145,0.0,0.0,100,0.00,,---,0.00,VWS V14.01,2013-06-19 06:06:00,
2013-06-19 02:11:00,59.4,59.4,29.96,SSE,147,3.9,3.9,100,0.00,,---,0.00,VWS V14.01,2013-06-19 06:11:00,
2013-06-19 02:17:00,59.4,59.4,29.96,SE,146,0.0,0.0,100,0.00,,---,0.00,VWS V14.01,2013-06-19 06:17:00,
2013-06-19 02:22:00,59.4,59.4,29.96,SE,146,0.0,0.0,100,0.00,,---,0.00,VWS V14.01,2013-06-19 06:22:00,
2013-06-19 02:27:00,59.4,59.4,29.96,SE,146,0.0,0.0,100,0.00,,---,0.00,VWS V14.01,2013-06-19 06:27:00,
2013-06-19 02:32:00,59.4,59.4,29.96,SE,146,4.5,4.5,100,0.00,,---,0.00,VWS V14.01,2013-06-19 06:32:00,
2013-06-19 02:37:00,59.2,59.2,29.96,SE,146,0.0,0.0,100,0.00,,---,0.00,VWS V14.01,2013-06-19 06:37:00,
2013-06-19 02:42:00,59.0,59.0,29.96,SE,145,3.9,4.5,100,0.00,,---,0.00,VWS V14.01,2013-06-19 06:42:00,
2013-06-19 02:47:00,59.0,59.0,29.96,SE,143,0.0,0.0,100,0.00,,---,0.00,VWS V14.01,2013-06-19 06:47:00,
2013-06-19 02:53:00,58.8,58.8,29.96,SE,143,0.0,0.0,100,0.00,,---,0.00,VWS V14.01,2013-06-19 06:53:00,
2013-06-19 02:58:00,58.8,58.8,29.96,SE,143,0.0,0.0,100,0.00,,---,0.00,VWS V14.01,2013-06-19 06:58:00,
2013-06-19 03:03:00,58.8,58.8,29.96,SE,143,0.0,0.0,100,0.00,,---,0.00,VWS V14.01,2013-06-19 07:03:00,
2013-06-19 03:08:00,58.8,58.8,29.96,SE,144,0.0,0.0,100,0.00,,---,0.00,VWS V14.01,2013-06-19 07:08:00,
2013-06-19 03:13:00,58.6,58.6,29.96,SE,144,0.0,0.0,100,0.00,,---,0.00,VWS V14.01,2013-06-19 07:13:00,
2013-06-19 03:18:00,58.5,58.5,29.96,SE,144,0.0,0.0,100,0.00,,---,0.00,VWS V14.01,2013-06-19 07:18:00,
2013-06-19 03:23:00,58.3,58.3,29.96,SE,144,0.0,0.0,100,0.00,,---,0.00,VWS V14.01,2013-06-19 07:23:00,
2013-06-19 03:28:00,58.3,58.3,29.96,SE,144,0.0,0.0,100,0.00,,---,0.00,VWS V14.01,2013-06-19 07:28:00,
2013-06-19 03:33:00,58.3,58.3,29.96,SE,144,0.0,0.0,100,0.00,,---,0.00,VWS V14.01,2013-06-19 07:33:00,
2013-06-19 03:39:00,58.3,58.3,29.96,SE,144,0.0,0.0,100,0.00,,---,0.00,VWS V14.01,2013-06-19 07:39:00,
2013-06-19 03:44:00,58.3,58.3,29.96,SE,144,0.0,0.0,100,0.00,,---,0.00,VWS V14.01,2013-06-19 07:44:00,
2013-06-19 03:49:00,58.3,58.3,29.96,SE,144,0.0,0.0,100,0.00,,---,0.00,VWS V14.01,2013-06-19 07:49:00,
2013-06-19 03:54:00,58.1,58.1,29.96,SE,144,0.0,0.0,100,0.00,,---,0.00,VWS V14.01,2013-06-19 07:54:00,
2013-06-19 03:59:00,58.1,58.1,29.96,SE,144,0.0,0.0,100,0.00,,---,0.00,VWS V14.01,2013-06-19 07:59:00,
2013-06-19 04:04:00,58.1,58.1,29.96,SE,144,0.0,0.0,100,0.00,,---,0.00,VWS V14.01,2013-06-19 08:04:00,
2013-06-19 04:09:00,57.9,57.9,29.96,SE,144,0.0,0.0,100,0.00,,---,0.00,VWS V14.01,2013-06-19 08:09:00,
2013-06-19 04:14:00,57.9,57.9,29.96,SE,144,0.0,0.0,100,0.00,,---,0.00,VWS V14.01,2013-06-19 08:14:00,
2013-06-19 04:19:00,57.9,57.9,29.96,SE,144,0.0,0.0,100,0.00,,---,0.00,VWS V14.01,2013-06-19 08:19:00,
2013-06-19 04:24:00,57.9,57.9,29.96,SE,144,0.0,0.0,100,0.00,,---,0.00,VWS V14.01,2013-06-19 08:24:00,
2013-06-19 04:29:00,57.9,57.9,29.96,SE,144,0.0,0.0,100,0.00,,---,0.00,VWS V14.01,2013-06-19 08:29:00,
2013-06-19 04:35:00,57.9,57.9,29.96,SE,144,0.0,0.0,100,0.00,,---,0.00,VWS V14.01,2013-06-19 08:35:00,
2013-06-19 04:40:00,57.7,57.7,29.96,SE,144,0.0,0.0,100,0.00,,---,0.00,VWS V14.01,2013-06-19 08:40:00,
2013-06-19 04:45:00,57.7,57.7,29.96,SE,144,0.0,0.0,100,0.00,,---,0.00,VWS V14.01,2013-06-19 08:45:00,
2013-06-19 04:50:00,57.7,57.7,29.96,SE,144,3.2,3.2,100,0.00,,---,0.00,VWS V14.01,2013-06-19 08:50:00,
2013-06-19 04:55:00,57.6,57.6,29.96,SE,144,0.0,0.0,100,0.00,,---,0.00,VWS V14.01,2013-06-19 08:55:00,
2013-06-19 05:00:00,57.4,57.4,29.96,SE,144,0.0,0.0,100,0.00,,---,0.00,VWS V14.01,2013-06-19 09:00:00,
2013-06-19 05:05:00,57.4,57.4,29.96,SE,144,0.0,0.0,100,0.00,,---,0.00,VWS V14.01,2013-06-19 09:05:00,
2013-06-19 05:11:00,57.4,57.4,29.96,SE,144,0.0,0.0,100,0.00,,---,0.00,VWS V14.01,2013-06-19 09:11:00,
2013-06-19 05:16:00,57.2,57.2,29.96,SE,144,0.0,0.0,100,0.00,,---,0.00,VWS V14.01,2013-06-19 09:16:00,
2013-06-19 05:21:00,57.2,57.2,29.96,SE,144,0.0,0.0,100,0.00,,---,0.00,VWS V14.01,2013-06-19 09:21:00,
2013-06-19 05:26:00,57.2,57.2,29.96,SE,144,0.0,0.0,100,0.00,,---,0.00,VWS V14.01,2013-06-19 09:26:00,
2013-06-19 05:31:00,57.2,57.2,29.96,SE,144,0.0,0.0,100,0.00,,---,0.00,VWS V14.01,2013-06-19 09:31:00,
2013-06-19 05:36:00,57.2,57.2,29.96,SE,144,0.0,0.0,100,0.00,,---,0.00,VWS V14.01,2013-06-19 09:36:00,
2013-06-19 05:41:00,57.2,57.2,29.96,SE,144,0.0,0.0,100,0.00,,---,0.00,VWS V14.01,2013-06-19 09:41:00,
2013-06-19 05:46:00,57.0,57.0,29.99,SE,144,0.0,0.0,100,0.00,,---,0.00,VWS V14.01,2013-06-19 09:46:00,
2013-06-19 05:52:00,56.8,56.8,29.99,SE,144,0.0,0.0,100,0.00,,---,0.00,VWS V14.01,2013-06-19 09:52:00,
2013-06-19 05:57:00,56.8,56.8,29.99,SE,144,0.0,0.0,100,0.00,,---,0.00,VWS V14.01,2013-06-19 09:57:00,
2013-06-19 06:02:00,57.0,57.0,29.99,SE,144,0.0,0.0,100,0.00,,---,0.00,VWS V14.01,2013-06-19 10:02:00,
2013-06-19 06:07:00,57.2,57.2,29.99,SE,144,0.0,0.0,100,0.00,,---,0.00,VWS V14.01,2013-06-19 10:07:00,
2013-06-19 06:12:00,57.4,57.4,29.99,SE,144,0.0,0.0,100,0.00,,---,0.00,VWS V14.01,2013-06-19 10:12:00,
2013-06-19 06:17:00,57.4,57.4,29.99,SE,144,0.0,0.0,100,0.00,,---,0.00,VWS V14.01,2013-06-19 10:17:00,
2013-06-19 06:22:00,57.6,57.6,29.99,SE,144,0.0,0.0,100,0.00,,---,0.00,VWS V14.01,2013-06-19 10:22:00,
2013-06-19 06:28:00,57.6,57.6,29.99,SE,144,0.0,0.0,100,0.00,,---,0.00,VWS V14.01,2013-06-19 10:28:00,
2013-06-19 06:33:00,57.7,57.7,29.99,SE,144,0.0,0.0,100,0.00,,---,0.00,VWS V14.01,2013-06-19 10:33:00,
2013-06-19 06:38:00,57.9,57.9,29.99,SE,144,0.0,0.0,100,0.00,,---,0.00,VWS V14.01,2013-06-19 10:38:00,
2013-06-19 06:43:00,57.9,57.9,29.99,SE,144,0.0,0.0,100,0.00,,---,0.00,VWS V14.01,2013-06-19 10:43:00,
2013-06-19 06:48:00,58.1,58.1,29.99,SE,144,0.0,0.0,100,0.00,,---,0.00,VWS V14.01,2013-06-19 10:48:00,
2013-06-19 06:53:00,58.5,58.5,29.99,SE,144,0.0,0.0,100,0.00,,---,0.00,VWS V14.01,2013-06-19 10:53:00,
2013-06-19 06:59:00,58.6,58.6,29.99,SE,144,0.0,0.0,100,0.00,,---,0.00,VWS V14.01,2013-06-19 10:59:00,
2013-06-19 07:04:00,58.8,58.8,29.99,SE,144,0.0,0.0,100,0.00,,---,0.00,VWS V14.01,2013-06-19 11:04:00,
2013-06-19 07:09:00,59.0,59.0,29.99,SE,144,0.0,0.0,100,0.00,,---,0.00,VWS V14.01,2013-06-19 11:09:00,
2013-06-19 07:14:00,59.0,59.0,30.02,SE,144,0.0,0.0,100,0.00,,---,0.00,VWS V14.01,2013-06-19 11:14:00,
2013-06-19 07:19:00,59.2,59.2,30.02,SE,144,0.0,0.0,100,0.00,,---,0.00,VWS V14.01,2013-06-19 11:19:00,
2013-06-19 07:24:00,59.4,59.4,30.02,SE,144,0.0,0.0,100,0.00,,---,0.00,VWS V14.01,2013-06-19 11:24:00,
2013-06-19 07:30:00,59.5,59.5,30.02,SE,144,0.0,0.0,100,0.00,,---,0.00,VWS V14.01,2013-06-19 11:30:00,
2013-06-19 07:35:00,59.7,59.7,30.02,SE,144,0.0,0.0,100,0.00,,---,0.00,VWS V14.01,2013-06-19 11:35:00,
2013-06-19 07:40:00,59.7,59.7,30.02,SE,144,0.0,0.0,100,0.00,,---,0.00,VWS V14.01,2013-06-19 11:40:00,
2013-06-19 07:45:00,60.1,60.1,30.02,SE,144,0.0,0.0,100,0.00,,---,0.00,VWS V14.01,2013-06-19 11:45:00,
2013-06-19 07:50:00,60.1,60.1,30.02,SE,144,0.0,0.0,100,0.00,,---,0.00,VWS V14.01,2013-06-19 11:50:00,
2013-06-19 07:55:00,60.3,60.3,30.02,SE,144,0.0,0.0,100,0.00,,---,0.00,VWS V14.01,2013-06-19 11:55:00,
2013-06-19 08:00:00,60.4,60.4,30.02,SE,144,0.0,0.0,100,0.00,,---,0.00,VWS V14.01,2013-06-19 12:00:00,
2013-06-19 08:05:00,60.6,60.6,30.02,SE,144,0.0,0.0,100,0.00,,---,0.00,VWS V14.01,2013-06-19 12:05:00,
2013-06-19 08:10:00,60.6,60.6,30.02,SE,144,0.0,0.0,100,0.00,,---,0.00,VWS V14.01,2013-06-19 12:10:00,
2013-06-19 08:15:00,60.6,60.6,30.05,SE,144,0.0,0.0,100,0.00,,---,0.00,VWS V14.01,2013-06-19 12:15:00,
2013-06-19 08:20:00,60.8,60.8,30.05,SE,144,0.0,0.0,100,0.00,,---,0.00,VWS V14.01,2013-06-19 12:20:00,
2013-06-19 08:26:00,61.0,61.0,30.05,South,173,0.0,0.0,100,0.00,,---,0.00,VWS V14.01,2013-06-19 12:26:00,
2013-06-19 08:31:00,61.3,61.3,30.05,SW,233,0.0,0.0,100,0.00,,---,0.00,VWS V14.01,2013-06-19 12:31:00,
2013-06-19 08:36:00,61.5,61.5,30.05,WSW,243,0.0,0.0,100,0.00,,---,0.00,VWS V14.01,2013-06-19 12:36:00,
2013-06-19 08:41:00,61.9,61.9,30.05,West,264,0.0,0.0,100,0.00,,---,0.00,VWS V14.01,2013-06-19 12:41:00,
2013-06-19 08:46:00,61.9,61.9,30.05,NNW,338,0.0,3.2,100,0.00,,---,0.00,VWS V14.01,2013-06-19 12:46:00,
2013-06-19 08:51:00,62.1,62.1,30.05,NW,309,0.0,0.0,100,0.00,,---,0.00,VWS V14.01,2013-06-19 12:51:00,
2013-06-19 08:56:00,62.4,62.4,30.05,WNW,297,0.0,0.0,100,0.00,,---,0.00,VWS V14.01,2013-06-19 12:56:00,
2013-06-19 09:01:00,62.6,62.6,30.05,SW,223,0.0,0.0,100,0.00,,---,0.00,VWS V14.01,2013-06-19 13:01:00,
2013-06-19 09:06:00,63.0,63.0,30.05,North,0,0.0,3.9,100,0.00,,---,0.00,VWS V14.01,2013-06-19 13:06:00,
2013-06-19 09:12:00,63.5,63.5,30.05,NNW,340,0.0,4.5,100,0.00,,---,0.00,VWS V14.01,2013-06-19 13:12:00,
2013-06-19 09:17:00,63.9,63.9,30.05,NNW,344,0.0,0.0,100,0.00,,---,0.00,VWS V14.01,2013-06-19 13:17:00,
2013-06-19 09:22:00,64.4,64.4,30.05,North,357,3.9,3.9,100,0.00,,---,0.00,VWS V14.01,2013-06-19 13:22:00,
2013-06-19 09:27:00,65.1,65.1,30.08,NE,50,0.0,0.0,100,0.00,,---,0.00,VWS V14.01,2013-06-19 13:27:00,
2013-06-19 09:32:00,66.0,66.0,30.08,NNW,343,0.0,4.5,100,0.00,,---,0.00,VWS V14.01,2013-06-19 13:32:00,
2013-06-19 09:37:00,66.7,66.7,30.08,ENE,62,0.0,0.0,100,0.00,,---,0.00,VWS V14.01,2013-06-19 13:37:00,
2013-06-19 09:42:00,67.1,67.1,30.08,North,353,5.8,5.8,100,0.00,,---,0.00,VWS V14.01,2013-06-19 13:42:00,
2013-06-19 09:47:00,67.5,67.5,30.08,NNE,22,3.9,7.8,100,0.00,,---,0.00,VWS V14.01,2013-06-19 13:47:00,
2013-06-19 09:52:00,67.8,67.8,30.08,North,4,5.2,5.2,100,0.00,,---,0.00,VWS V14.01,2013-06-19 13:52:00,
2013-06-19 09:57:00,68.4,68.4,30.08,NNW,329,7.1,7.8,100,0.00,,---,0.00,VWS V14.01,2013-06-19 13:57:00,
2013-06-19 10:02:00,68.9,68.9,30.08,North,349,4.5,5.2,100,0.00,,---,0.00,VWS V14.01,2013-06-19 14:02:00,
2013-06-19 10:08:00,69.8,69.8,30.08,NNE,12,4.5,5.2,100,0.00,,---,0.00,VWS V14.01,2013-06-19 14:08:00,
2013-06-19 10:13:00,69.8,68.6,30.08,North,353,5.2,7.8,96,0.00,,---,0.00,VWS V14.01,2013-06-19 14:13:00,
2013-06-19 10:18:00,69.6,68.0,30.08,North,0,5.2,8.4,95,0.00,,---,0.00,VWS V14.01,2013-06-19 14:18:00,
2013-06-19 10:23:00,70.2,68.1,30.08,NNE,33,0.0,3.2,93,0.00,,---,0.00,VWS V14.01,2013-06-19 14:23:00,
2013-06-19 10:28:00,70.3,68.3,30.08,NNE,15,4.5,4.5,93,0.00,,---,0.00,VWS V14.01,2013-06-19 14:28:00,
2013-06-19 10:33:00,70.2,68.1,30.08,North,0,7.8,7.8,93,0.00,,---,0.00,VWS V14.01,2013-06-19 14:33:00,
2013-06-19 10:38:00,70.0,67.9,30.08,NNW,339,8.4,8.4,93,0.00,,---,0.00,VWS V14.01,2013-06-19 14:38:00,
2013-06-19 10:43:00,70.0,67.9,30.08,WNW,300,9.1,9.1,93,0.00,,---,0.00,VWS V14.01,2013-06-19 14:43:00,
2013-06-19 10:48:00,69.6,67.6,30.08,North,10,3.9,5.8,93,0.00,,---,0.00,VWS V14.01,2013-06-19 14:48:00,
2013-06-19 10:53:00,69.6,67.6,30.08,North,353,5.8,5.8,93,0.00,,---,0.00,VWS V14.01,2013-06-19 14:53:00,
2013-06-19 10:58:00,70.0,67.9,30.08,NE,52,3.9,5.2,93,0.00,,---,0.00,VWS V14.01,2013-06-19 14:58:00,
2013-06-19 11:03:00,70.2,67.7,30.08,NE,34,7.8,8.4,92,0.00,,---,0.00,VWS V14.01,2013-06-19 15:03:00,
2013-06-19 11:08:00,70.0,66.1,30.08,NNE,13,4.5,4.5,88,0.00,,---,0.00,VWS V14.01,2013-06-19 15:08:00,
2013-06-19 11:14:00,70.2,66.8,30.08,North,0,7.8,8.4,89,0.00,,---,0.00,VWS V14.01,2013-06-19 15:14:00,
2013-06-19 11:19:00,70.2,66.8,30.08,NNE,15,7.1,7.1,89,0.00,,---,0.00,VWS V14.01,2013-06-19 15:19:00,
2013-06-19 11:24:00,70.5,66.7,30.08,NNW,338,5.2,5.8,88,0.00,,---,0.00,VWS V14.01,2013-06-19 15:24:00,
2013-06-19 11:29:00,70.7,66.4,30.08,NE,44,5.8,9.1,86,0.00,,---,0.00,VWS V14.01,2013-06-19 15:29:00,
2013-06-19 11:34:00,70.7,65.9,30.08,NNW,340,11.0,11.0,85,0.00,,---,0.00,VWS V14.01,2013-06-19 15:34:00,
2013-06-19 11:39:00,70.9,64.6,30.08,NNW,338,0.0,5.8,81,0.00,,---,0.00,VWS V14.01,2013-06-19 15:39:00,
2013-06-19 11:44:00,71.1,65.8,30.08,NNW,344,5.2,11.0,83,0.00,,---,0.00,VWS V14.01,2013-06-19 15:44:00,
2013-06-19 11:49:00,71.4,66.6,30.08,North,357,7.1,7.1,85,0.00,,---,0.00,VWS V14.01,2013-06-19 15:49:00,
2013-06-19 11:54:00,71.4,66.1,30.08,North,5,8.4,8.4,83,0.00,,---,0.00,VWS V14.01,2013-06-19 15:54:00,
2013-06-19 11:59:00,71.4,66.6,30.08,North,8,7.1,7.1,85,0.00,,---,0.00,VWS V14.01,2013-06-19 15:59:00,
2013-06-19 12:04:00,72.0,66.7,30.08,North,8,3.9,7.1,83,0.00,,---,0.00,VWS V14.01,2013-06-19 16:04:00,
2013-06-19 12:09:00,72.1,66.3,30.08,NNE,32,4.5,8.4,82,0.00,,---,0.00,VWS V14.01,2013-06-19 16:09:00,
2013-06-19 12:14:00,72.1,66.3,30.08,NE,37,3.9,5.8,82,0.00,,---,0.00,VWS V14.01,2013-06-19 16:14:00,
2013-06-19 12:19:00,72.7,66.9,30.08,North,353,5.8,7.1,82,0.00,,---,0.00,VWS V14.01,2013-06-19 16:19:00,
2013-06-19 12:24:00,72.9,62.9,30.08,NNW,346,3.9,8.4,71,0.00,,---,0.00,VWS V14.01,2013-06-19 16:24:00,
2013-06-19 12:29:00,73.0,64.1,30.08,North,353,5.2,5.2,74,0.00,,---,0.00,VWS V14.01,2013-06-19 16:29:00,
2013-06-19 12:34:00,73.2,64.8,30.08,NE,38,0.0,0.0,75,0.00,,---,0.00,VWS V14.01,2013-06-19 16:34:00,
2013-06-19 12:39:00,73.6,64.7,30.08,SE,136,5.2,5.8,74,0.00,,---,0.00,VWS V14.01,2013-06-19 16:39:00,
2013-06-19 12:44:00,74.1,66.2,30.08,ESE,115,9.1,11.7,76,0.00,,---,0.00,VWS V14.01,2013-06-19 16:44:00,
2013-06-19 12:49:00,73.9,65.6,30.08,East,82,3.9,12.0,75,0.00,,---,0.00,VWS V14.01,2013-06-19 16:49:00,
2013-06-19 12:54:00,73.4,64.5,30.08,NE,45,0.0,3.9,74,0.00,,---,0.00,VWS V14.01,2013-06-19 16:54:00,
2013-06-19 12:59:00,73.0,64.1,30.08,North,9,0.0,0.0,74,0.00,,---,0.00,VWS V14.01,2013-06-19 16:59:00,
2013-06-19 13:04:00,72.7,63.8,30.08,SE,133,4.5,9.1,74,0.00,,---,0.00,VWS V14.01,2013-06-19 17:04:00,
2013-06-19 13:09:00,72.5,63.6,30.08,SE,128,7.1,7.8,74,0.00,,---,0.00,VWS V14.01,2013-06-19 17:09:00,
2013-06-19 13:14:00,72.3,64.0,30.08,SE,145,3.2,3.2,75,0.00,,---,0.00,VWS V14.01,2013-06-19 17:14:00,
2013-06-19 13:19:00,72.7,64.3,30.08,ESE,123,3.9,5.2,75,0.00,,---,0.00,VWS V14.01,2013-06-19 17:19:00,
2013-06-19 13:24:00,72.9,64.5,30.08,SE,138,3.9,8.4,75,0.00,,---,0.00,VWS V14.01,2013-06-19 17:24:00,
2013-06-19 13:29:00,73.4,65.0,30.08,South,176,5.8,7.8,75,0.00,,---,0.00,VWS V14.01,2013-06-19 17:29:00,
2013-06-19 13:34:00,73.4,64.5,30.08,ESE,122,5.2,5.8,74,0.00,,---,0.00,VWS V14.01,2013-06-19 17:34:00,
2013-06-19 13:39:00,73.0,64.1,30.08,SSE,158,0.0,4.5,74,0.00,,---,0.00,VWS V14.01,2013-06-19 17:39:00,
2013-06-19 13:44:00,72.7,63.8,30.08,SE,143,3.9,5.8,74,0.00,,---,0.00,VWS V14.01,2013-06-19 17:44:00,
2013-06-19 13:49:00,72.5,63.6,30.08,SE,138,5.2,8.4,74,0.00,,---,0.00,VWS V14.01,2013-06-19 17:49:00,
2013-06-19 13:54:00,72.7,63.8,30.08,SE,136,11.0,11.0,74,0.00,,---,0.00,VWS V14.01,2013-06-19 17:54:00,
2013-06-19 13:59:00,73.4,65.0,30.08,SSE,151,7.1,8.4,75,0.00,,---,0.00,VWS V14.01,2013-06-19 17:59:00,
2013-06-19 14:04:00,74.1,65.7,30.08,SSE,152,10.4,10.4,75,0.00,,---,0.00,VWS V14.01,2013-06-19 18:04:00,
2013-06-19 14:09:00,74.3,65.9,30.08,SSE,153,4.5,8.4,75,0.00,,---,0.00,VWS V14.01,2013-06-19 18:09:00,
2013-06-19 14:14:00,74.8,66.4,30.08,SE,135,5.2,5.2,75,0.00,,---,0.00,VWS V14.01,2013-06-19 18:14:00,
2013-06-19 14:19:00,75.6,67.1,30.08,SSW,195,5.8,7.8,75,0.00,,---,0.00,VWS V14.01,2013-06-19 18:19:00,
2013-06-19 14:24:00,75.7,65.6,30.08,SE,127,7.8,11.7,71,0.00,,---,0.00,VWS V14.01,2013-06-19 18:24:00,
2013-06-19 14:29:00,75.4,65.3,30.08,SE,143,11.7,13.3,71,0.00,,---,0.00,VWS V14.01,2013-06-19 18:29:00,
2013-06-19 14:34:00,75.2,65.1,30.08,SSE,157,3.2,4.5,71,0.00,,---,0.00,VWS V14.01,2013-06-19 18:34:00,
2013-06-19 14:39:00,75.0,64.9,30.08,SE,144,5.8,8.4,71,0.00,,---,0.00,VWS V14.01,2013-06-19 18:39:00,
2013-06-19 14:44:00,74.7,64.0,30.08,SE,128,8.4,9.1,70,0.00,,---,0.00,VWS V14.01,2013-06-19 18:44:00,
2013-06-19 14:49:00,74.3,63.7,30.08,SE,146,9.7,9.7,70,0.00,,---,0.00,VWS V14.01,2013-06-19 18:49:00,
2013-06-19 14:54:00,74.7,64.6,30.08,South,189,5.2,8.4,71,0.00,,---,0.00,VWS V14.01,2013-06-19 18:54:00,
2013-06-19 14:59:00,75.0,64.9,30.08,SE,146,13.3,13.3,71,0.00,,---,0.00,VWS V14.01,2013-06-19 18:59:00,
2013-06-19 15:04:00,75.6,64.9,30.08,SE,142,12.6,12.6,70,0.00,,---,0.00,VWS V14.01,2013-06-19 19:04:00,
2013-06-19 15:09:00,75.9,65.2,30.08,SSE,158,4.5,9.7,70,0.00,,---,0.00,VWS V14.01,2013-06-19 19:09:00,
2013-06-19 15:14:00,76.1,64.8,30.08,SE,142,7.8,11.7,68,0.00,,---,0.00,VWS V14.01,2013-06-19 19:14:00,
2013-06-19 15:19:00,76.3,65.0,30.08,SSE,159,5.8,11.0,68,0.00,,---,0.00,VWS V14.01,2013-06-19 19:19:00,
2013-06-19 15:24:00,76.1,64.2,30.08,SE,137,4.5,8.4,67,0.00,,---,0.00,VWS V14.01,2013-06-19 19:24:00,
2013-06-19 15:29:00,75.6,63.1,30.08,ESE,123,3.9,12.0,65,0.00,,---,0.00,VWS V14.01,2013-06-19 19:29:00,
2013-06-19 15:34:00,74.8,62.4,30.08,SSE,148,15.2,15.2,65,0.00,,---,0.00,VWS V14.01,2013-06-19 19:34:00,
2013-06-19 15:39:00,74.1,61.8,30.08,SSE,148,9.1,11.0,65,0.00,,---,0.00,VWS V14.01,2013-06-19 19:39:00,
2013-06-19 15:44:00,73.4,60.5,30.08,SE,133,8.4,8.4,64,0.00,,---,0.00,VWS V14.01,2013-06-19 19:44:00,
2013-06-19 15:49:00,72.9,60.6,30.08,SE,138,11.0,11.0,65,0.00,,---,0.00,VWS V14.01,2013-06-19 19:49:00,
2013-06-19 15:54:00,72.3,60.0,30.08,SE,139,5.8,8.4,65,0.00,,---,0.00,VWS V14.01,2013-06-19 19:54:00,
2013-06-19 15:59:00,72.0,59.7,30.08,SSE,161,3.9,3.9,65,0.00,,---,0.00,VWS V14.01,2013-06-19 19:59:00,
2013-06-19 16:04:00,71.8,60.1,30.08,South,179,0.0,5.8,67,0.00,,---,0.00,VWS V14.01,2013-06-19 20:04:00,
2013-06-19 16:09:00,72.1,60.5,30.08,SE,143,5.8,8.4,67,0.00,,---,0.00,VWS V14.01,2013-06-19 20:09:00,
2013-06-19 16:14:00,72.7,61.6,30.08,ESE,122,4.5,7.1,68,0.00,,---,0.00,VWS V14.01,2013-06-19 20:14:00,
2013-06-19 16:19:00,73.0,61.9,30.08,SE,130,0.0,7.1,68,0.00,,---,0.00,VWS V14.01,2013-06-19 20:19:00,
2013-06-19 16:24:00,73.2,62.1,30.08,SE,146,5.8,8.4,68,0.00,,---,0.00,VWS V14.01,2013-06-19 20:24:00,
2013-06-19 16:29:00,73.2,62.1,30.08,South,180,5.2,8.4,68,0.00,,---,0.00,VWS V14.01,2013-06-19 20:29:00,
2013-06-19 16:34:00,73.0,61.3,30.08,South,175,11.7,11.7,67,0.00,,---,0.00,VWS V14.01,2013-06-19 20:34:00,
2013-06-19 16:39:00,72.9,61.2,30.08,East,90,5.2,5.8,67,0.00,,---,0.00,VWS V14.01,2013-06-19 20:39:00,
2013-06-19 16:44:00,72.7,61.0,30.08,SE,139,0.0,3.2,67,0.00,,---,0.00,VWS V14.01,2013-06-19 20:44:00,
2013-06-19 16:49:00,72.9,61.2,30.08,SE,132,5.8,9.1,67,0.00,,---,0.00,VWS V14.01,2013-06-19 20:49:00,
2013-06-19 16:54:00,73.0,61.3,30.08,SSE,148,5.2,7.8,67,0.00,,---,0.00,VWS V14.01,2013-06-19 20:54:00,
2013-06-19 16:59:00,73.0,61.3,30.08,SE,129,9.7,12.0,67,0.00,,---,0.00,VWS V14.01,2013-06-19 20:59:00,
2013-06-19 17:04:00,73.0,61.3,30.08,SE,135,12.0,13.3,67,0.00,,---,0.00,VWS V14.01,2013-06-19 21:04:00,
2013-06-19 17:09:00,73.0,61.3,30.08,SSE,156,4.5,11.0,67,0.00,,---,0.00,VWS V14.01,2013-06-19 21:09:00,
2013-06-19 17:14:00,72.9,60.6,30.08,ESE,117,6.5,8.4,65,0.00,,---,0.00,VWS V14.01,2013-06-19 21:14:00,
2013-06-19 17:19:00,72.7,60.4,30.08,SE,140,8.4,8.4,65,0.00,,---,0.00,VWS V14.01,2013-06-19 21:19:00,
2013-06-19 17:24:00,72.5,60.2,30.08,SE,134,11.0,11.0,65,0.00,,---,0.00,VWS V14.01,2013-06-19 21:24:00,
2013-06-19 17:29:00,72.3,60.0,30.08,SE,141,7.1,7.8,65,0.00,,---,0.00,VWS V14.01,2013-06-19 21:29:00,
2013-06-19 17:34:00,72.1,59.9,30.08,NNE,22,0.0,5.8,65,0.00,,---,0.00,VWS V14.01,2013-06-19 21:34:00,
2013-06-19 17:39:00,72.0,59.7,30.08,SSE,153,9.1,9.1,65,0.00,,---,0.00,VWS V14.01,2013-06-19 21:39:00,
2013-06-19 17:44:00,71.6,59.4,30.08,SE,145,9.1,12.0,65,0.00,,---,0.00,VWS V14.01,2013-06-19 21:44:00,
2013-06-19 17:49:00,71.4,59.8,30.08,SE,133,4.5,12.0,67,0.00,,---,0.00,VWS V14.01,2013-06-19 21:49:00,
2013-06-19 17:54:00,71.4,59.8,30.08,South,178,4.5,9.1,67,0.00,,---,0.00,VWS V14.01,2013-06-19 21:54:00,
2013-06-19 17:59:00,71.6,60.0,30.08,SE,142,7.1,7.1,67,0.00,,---,0.00,VWS V14.01,2013-06-19 21:59:00,
2013-06-19 18:04:00,72.0,60.3,30.08,SE,136,7.8,7.8,67,0.00,,---,0.00,VWS V14.01,2013-06-19 22:04:00,
2013-06-19 18:10:00,72.1,60.5,30.08,SE,126,12.0,12.0,67,0.00,,---,0.00,VWS V14.01,2013-06-19 22:10:00,
2013-06-19 18:15:00,72.3,60.6,30.11,East,100,4.5,8.4,67,0.00,,---,0.00,VWS V14.01,2013-06-19 22:15:00,
2013-06-19 18:20:00,72.3,60.6,30.11,SSE,151,12.6,12.6,67,0.00,,---,0.00,VWS V14.01,2013-06-19 22:20:00,
2013-06-19 18:25:00,72.5,60.2,30.11,SSW,209,5.2,5.2,65,0.00,,---,0.00,VWS V14.01,2013-06-19 22:25:00,
2013-06-19 18:30:00,72.7,60.4,30.08,SSE,155,7.8,11.0,65,0.00,,---,0.00,VWS V14.01,2013-06-19 22:30:00,
2013-06-19 18:35:00,72.7,60.4,30.08,SSE,149,8.4,10.4,65,0.00,,---,0.00,VWS V14.01,2013-06-19 22:35:00,
2013-06-19 18:40:00,72.7,60.4,30.08,SSE,147,5.2,11.7,65,0.00,,---,0.00,VWS V14.01,2013-06-19 22:40:00,
2013-06-19 18:45:00,72.3,60.0,30.11,SE,142,5.2,7.8,65,0.00,,---,0.00,VWS V14.01,2013-06-19 22:45:00,
2013-06-19 18:50:00,72.0,59.7,30.11,ESE,111,8.4,8.4,65,0.00,,---,0.00,VWS V14.01,2013-06-19 22:50:00,
2013-06-19 18:55:00,71.8,59.5,30.11,ESE,103,7.8,8.4,65,0.00,,---,0.00,VWS V14.01,2013-06-19 22:55:00,
2013-06-19 19:00:00,71.6,59.4,30.11,SE,141,7.8,11.7,65,0.00,,---,0.00,VWS V14.01,2013-06-19 23:00:00,
2013-06-19 19:05:00,71.6,59.4,30.11,East,92,7.1,9.1,65,0.00,,---,0.00,VWS V14.01,2013-06-19 23:05:00,
2013-06-19 19:10:00,71.6,59.4,30.11,SSE,150,7.8,8.4,65,0.00,,---,0.00,VWS V14.01,2013-06-19 23:10:00,
2013-06-19 19:15:00,71.4,59.2,30.11,SE,128,3.9,5.2,65,0.00,,---,0.00,VWS V14.01,2013-06-19 23:15:00,
2013-06-19 19:20:00,71.4,59.2,30.11,SE,141,5.2,9.1,65,0.00,,---,0.00,VWS V14.01,2013-06-19 23:20:00,
2013-06-19 19:25:00,71.2,59.0,30.11,SSE,148,7.1,7.1,65,0.00,,---,0.00,VWS V14.01,2013-06-19 23:25:00,
2013-06-19 19:30:00,71.2,59.0,30.11,SSE,155,5.8,7.1,65,0.00,,---,0.00,VWS V14.01,2013-06-19 23:30:00,
2013-06-19 19:35:00,71.1,58.8,30.11,SSE,154,9.1,12.0,65,0.00,,---,0.00,VWS V14.01,2013-06-19 23:35:00,
2013-06-19 19:40:00,70.9,58.7,30.11,SSE,161,7.8,9.1,65,0.00,,---,0.00,VWS V14.01,2013-06-19 23:40:00,
2013-06-19 19:45:00,70.7,58.5,30.11,SE,144,5.8,9.1,65,0.00,,---,0.00,VWS V14.01,2013-06-19 23:45:00,
2013-06-19 19:51:00,70.5,58.3,30.11,SSE,154,7.8,9.1,65,0.00,,---,0.00,VWS V14.01,2013-06-19 23:51:00,
2013-06-19 19:56:00,70.2,58.0,30.11,ESE,109,5.2,5.8,65,0.00,,---,0.00,VWS V14.01,2013-06-19 23:56:00,
2013-06-19 20:01:00,70.0,57.8,30.11,ESE,114,0.0,0.0,65,0.00,,---,0.00,VWS V14.01,2013-06-20 00:01:00,
2013-06-19 20:06:00,69.6,58.1,30.11,NE,39,0.0,0.0,67,0.00,,---,0.00,VWS V14.01,2013-06-20 00:06:00,
2013-06-19 20:11:00,69.4,57.9,30.11,ESE,118,0.0,4.5,67,0.00,,---,0.00,VWS V14.01,2013-06-20 00:11:00,
2013-06-19 20:16:00,69.3,57.7,30.11,NNE,17,0.0,0.0,67,0.00,,---,0.00,VWS V14.01,2013-06-20 00:16:00,
2013-06-19 20:21:00,69.1,57.6,30.11,NNE,23,0.0,0.0,67,0.00,,---,0.00,VWS V14.01,2013-06-20 00:21:00,
2013-06-19 20:26:00,68.9,57.4,30.14,ENE,57,0.0,0.0,67,0.00,,---,0.00,VWS V14.01,2013-06-20 00:26:00,
2013-06-19 20:31:00,68.7,57.8,30.14,SE,135,3.9,5.2,68,0.00,,---,0.00,VWS V14.01,2013-06-20 00:31:00,
2013-06-19 20:36:00,68.7,57.8,30.14,SSE,154,5.2,7.1,68,0.00,,---,0.00,VWS V14.01,2013-06-20 00:36:00,
2013-06-19 20:41:00,68.5,57.6,30.14,SSE,150,3.9,3.9,68,0.00,,---,0.00,VWS V14.01,2013-06-20 00:41:00,
2013-06-19 20:46:00,68.5,57.6,30.14,ESE,116,4.5,4.5,68,0.00,,---,0.00,VWS V14.01,2013-06-20 00:46:00,
2013-06-19 20:51:00,68.5,57.6,30.14,SE,139,3.2,4.5,68,0.00,,---,0.00,VWS V14.01,2013-06-20 00:51:00,
2013-06-19 20:56:00,68.5,57.6,30.14,SSE,153,5.2,7.1,68,0.00,,---,0.00,VWS V14.01,2013-06-20 00:56:00,
2013-06-19 21:01:00,68.4,58.0,30.14,ESE,123,3.9,7.8,70,0.00,,---,0.00,VWS V14.01,2013-06-20 01:01:00,
2013-06-19 21:06:00,68.4,58.0,30.14,SE,142,7.8,7.8,70,0.00,,---,0.00,VWS V14.01,2013-06-20 01:06:00,
2013-06-19 21:11:00,68.4,58.0,30.14,SSE,147,3.9,5.8,70,0.00,,---,0.00,VWS V14.01,2013-06-20 01:11:00,
2013-06-19 21:16:00,68.4,58.0,30.14,SE,131,5.2,5.2,70,0.00,,---,0.00,VWS V14.01,2013-06-20 01:16:00,
2013-06-19 21:21:00,68.2,57.8,30.14,SE,146,5.2,7.1,70,0.00,,---,0.00,VWS V14.01,2013-06-20 01:21:00,
2013-06-19 21:27:00,68.2,57.8,30.14,ESE,105,5.2,5.2,70,0.00,,---,0.00,VWS V14.01,2013-06-20 01:27:00,
2013-06-19 21:32:00,68.2,58.4,30.14,SE,143,5.2,5.8,71,0.00,,---,0.00,VWS V14.01,2013-06-20 01:32:00,
2013-06-19 21:37:00,68.2,58.4,30.14,SE,144,3.9,5.2,71,0.00,,---,0.00,VWS V14.01,2013-06-20 01:37:00,
2013-06-19 21:42:00,68.2,58.4,30.14,ENE,67,4.5,4.5,71,0.00,,---,0.00,VWS V14.01,2013-06-20 01:42:00,
2013-06-19 21:47:00,68.2,58.4,30.14,ESE,106,0.0,0.0,71,0.00,,---,0.00,VWS V14.01,2013-06-20 01:47:00,
2013-06-19 21:52:00,68.2,58.4,30.14,SSE,147,3.9,4.5,71,0.00,,---,0.00,VWS V14.01,2013-06-20 01:52:00,
2013-06-19 21:57:00,68.2,58.4,30.14,SSE,149,0.0,0.0,71,0.00,,---,0.00,VWS V14.01,2013-06-20 01:57:00,
2013-06-19 22:02:00,68.0,58.2,30.14,SSE,165,5.8,5.8,71,0.00,,---,0.00,VWS V14.01,2013-06-20 02:02:00,
2013-06-19 22:07:00,68.0,58.8,30.14,South,176,3.2,3.9,72,0.00,,---,0.00,VWS V14.01,2013-06-20 02:07:00,
2013-06-19 22:12:00,67.8,58.6,30.14,SE,127,3.9,4.5,72,0.00,,---,0.00,VWS V14.01,2013-06-20 02:12:00,
2013-06-19 22:17:00,67.8,58.6,30.14,SW,217,3.9,5.2,72,0.00,,---,0.00,VWS V14.01,2013-06-20 02:17:00,
2013-06-19 22:22:00,67.6,58.4,30.14,SSE,151,4.5,4.5,72,0.00,,---,0.00,VWS V14.01,2013-06-20 02:22:00,
2013-06-19 22:27:00,67.5,58.8,30.14,SE,141,5.8,5.8,74,0.00,,---,0.00,VWS V14.01,2013-06-20 02:27:00,
2013-06-19 22:32:00,67.5,58.8,30.14,SE,144,0.0,0.0,74,0.00,,---,0.00,VWS V14.01,2013-06-20 02:32:00,
2013-06-19 22:37:00,67.1,58.4,30.14,SE,144,0.0,0.0,74,0.00,,---,0.00,VWS V14.01,2013-06-20 02:37:00,
2013-06-19 22:43:00,66.9,58.2,30.14,ESE,116,3.2,3.2,74,0.00,,---,0.00,VWS V14.01,2013-06-20 02:43:00,
2013-06-19 22:48:00,66.7,58.6,30.14,SW,226,0.0,0.0,75,0.00,,---,0.00,VWS V14.01,2013-06-20 02:48:00,
2013-06-19 22:53:00,66.6,58.4,30.14,SW,226,0.0,0.0,75,0.00,,---,0.00,VWS V14.01,2013-06-20 02:53:00,
2013-06-19 22:58:00,66.6,58.4,30.16,SW,223,0.0,0.0,75,0.00,,---,0.00,VWS V14.01,2013-06-20 02:58:00,
2013-06-19 23:03:00,66.4,58.2,30.16,SW,222,0.0,0.0,75,0.00,,---,0.00,VWS V14.01,2013-06-20 03:03:00,
2013-06-19 23:08:00,66.4,58.8,30.16,SE,124,4.5,5.8,76,0.00,,---,0.00,VWS V14.01,2013-06-20 03:08:00,
2013-06-19 23:13:00,66.4,58.8,30.16,SSE,149,4.5,4.5,76,0.00,,---,0.00,VWS V14.01,2013-06-20 03:13:00,
2013-06-19 23:18:00,66.4,58.8,30.16,SSE,149,0.0,0.0,76,0.00,,---,0.00,VWS V14.01,2013-06-20 03:18:00,
2013-06-19 23:23:00,66.4,59.3,30.16,SSE,149,0.0,0.0,78,0.00,,---,0.00,VWS V14.01,2013-06-20 03:23:00,
2013-06-19 23:28:00,66.4,59.3,30.16,SSE,149,0.0,0.0,78,0.00,,---,0.00,VWS V14.01,2013-06-20 03:28:00,
2013-06-19 23:33:00,66.4,59.8,30.16,SSW,193,0.0,0.0,79,0.00,,---,0.00,VWS V14.01,2013-06-20 03:33:00,
2013-06-19 23:38:00,66.4,59.8,30.16,SSW,193,0.0,0.0,79,0.00,,---,0.00,VWS V14.01,2013-06-20 03:38:00,
2013-06-19 23:43:00,66.6,59.9,30.16,SSW,193,0.0,0.0,79,0.00,,---,0.00,VWS V14.01,2013-06-20 03:43:00,
2013-06-19 23:48:00,66.6,59.9,30.16,South,188,0.0,0.0,79,0.00,,---,0.00,VWS V14.01,2013-06-20 03:48:00,
2013-06-19 23:54:00,66.6,60.4,30.16,South,182,0.0,0.0,81,0.00,,---,0.00,VWS V14.01,2013-06-20 03:54:00,
2013-06-19 23:59:00,66.6,60.4,30.16,South,184,0.0,0.0,81,0.00,,---,0.00,VWS V14.01,2013-06-20 03:59:00,